Pasco, WA
on Tuesday, November 6, 2012

Tuesday
Previous Day Next Day
Daily Summary
 ActualAverageRecord
Temperature
Mean Temperature °F 45°F  
Max Temperature 61°F 55°F 72°F (2006)
Min Temperature 41°F 34°F 12°F (2003)
Degree Days
Heating Degree Days 14 20  
Month to date heating degree days 69 117  
Since 1 July heating degree days 513 635  
Cooling Degree Days 0 0  
Month to date cooling degree days 0 0  
Year to date cooling degree days 788 710  
Moisture
Dew Point 46°F   
Average Humidity 79    
Maximum Humidity 100    
Minimum Humidity 57    
Precipitation
Precipitation 0.00 in 0.03 in 0.20 in (1999)
Month to date precipitation 0.08 0.18  
Year to date precipitation 7.54 6.71  
Snow
Snow 0.00 in in in ()
Snow Depth 0.00 in   
Wind
Wind Speed 2 mph   
Max Wind Speed 9 mph   
Max Gust Speed 12 mph   
Visibility 10 miles   
Events     

Key: T is trace of precipitation, MM is missing value
Source: NWS Daily Summary
Time(PST)TemperatureDew PointHumidity Pressure Visibility Wind DirectionWind SpeedGust SpeedPrecipitationEvents Conditions
12:53 AM 43.0°F 42.1°F 97% 30.18 in 10.0 miles NNW 3.5 mph - N/A   Clear
1:53 AM 45.0°F 43.0°F 93% 30.16 in 10.0 miles Calm Calm - N/A   Clear
2:53 AM 43.0°F 42.1°F 97% 30.14 in 10.0 miles Calm Calm - N/A   Clear
3:53 AM 42.1°F 41.0°F 96% 30.13 in 10.0 miles Calm Calm - N/A   Clear
4:53 AM 41.0°F 39.9°F 96% 30.12 in 10.0 miles North 3.5 mph - N/A   Clear
5:53 AM 41.0°F 39.9°F 96% 30.11 in 10.0 miles North 3.5 mph - N/A   Clear
6:53 AM 41.0°F 39.9°F 96% 30.11 in 10.0 miles Calm Calm - N/A   Clear
7:53 AM 44.1°F 43.0°F 96% 30.11 in 10.0 miles Calm Calm - N/A   Clear
8:53 AM 46.9°F 45.0°F 93% 30.10 in 10.0 miles Calm Calm - N/A   Clear
9:53 AM 54.0°F 45.0°F 72% 30.08 in 10.0 miles Variable 4.6 mph - N/A   Clear
10:53 AM 55.9°F 44.1°F 64% 30.04 in 10.0 miles Calm Calm - N/A   Clear
11:53 AM 59.0°F 45.0°F 60% 30.01 in 10.0 miles NNW 3.5 mph - N/A   Clear
12:53 PM 59.0°F 46.0°F 62% 29.97 in 10.0 miles Calm Calm - N/A   Clear
1:53 PM 60.1°F 46.9°F 62% 29.94 in 10.0 miles Calm Calm - N/A   Clear
2:53 PM 60.1°F 48.0°F 64% 29.92 in 10.0 miles Calm Calm - N/A   Clear
3:53 PM 60.1°F 50.0°F 69% 29.91 in 10.0 miles Calm Calm - N/A   Clear
4:53 PM 55.0°F 48.9°F 80% 29.90 in 10.0 miles Calm Calm - N/A   Clear
5:53 PM 52.0°F 48.0°F 86% 29.90 in 10.0 miles Variable 4.6 mph - N/A   Clear
6:53 PM 52.0°F 50.0°F 93% 29.89 in 8.0 miles NNE 5.8 mph - N/A   Clear
7:53 PM 53.1°F 51.1°F 93% 29.89 in 7.0 miles Calm Calm - N/A   Clear
8:53 PM 54.0°F 51.1°F 90% 29.89 in 9.0 miles ESE 5.8 mph - N/A   Clear
9:53 PM 54.0°F 51.1°F 90% 29.90 in 8.0 miles SSE 6.9 mph - N/A   Partly Cloudy
10:53 PM 54.0°F 50.0°F 86% 29.91 in 10.0 miles SSE 5.8 mph - N/A   Clear
11:53 PM 53.1°F 50.0°F 89% 29.91 in 10.0 miles Calm Calm - N/A   Partly Cloudy
Moon Phase
Nov. 06 Nov. 06 Nov. 13 Nov. 20 Nov. 28
Sunrise:06:45 AM (PST) Moon Rise:11:22 PM (PST)11/6
Sunset:04:34 PM (PST) Moon Set:12:37 PM (PST)11/6

Copyright © 2014 The Weather Underground, Inc.